Regional Weather Roundup
Issued by NWS State College, PA

Home | Current Version | Previous Version | Graphics & Text | Print | Product List | Glossary On
Versions: 1 2 3 4 5 6 7 8 9 10 11 12 13 14 15 16 17 18 19 20 21 22 23 24 25 26 27 28 29 30 31 32 33 34 35 36 37 38 39 40 41 42 43 44 45 46 47 48 49 50
000
ASUS41 KCTP 081603
RWRCTP

REGIONAL WEATHER ROUNDUP
NATIONAL WEATHER SERVICE STATE COLLEGE PA
1100 AM EST MON FEB 08 2016

Note: "fair" indicates few or no clouds below 12,000 feet with no
significant weather and/or obstructions to visibility.

* = STATION THAT DOES NOT REPORT PRECIPITATION /E.G. RAIN...SNOW...ETC/
    THUNDER OR FOG.

PAZ002>004-007>009-013>016-020>023-029>032-081700-
WESTERN PENNSYLVANIA

CITY           SKY/WX    TMP DP  RH WIND       PRES   REMARKS
ERIE           CLOUDY    44  24  45 S10       29.61F
MEADVILLE      CLOUDY    39  24  55 VRB5      29.59F
FRANKLIN*      MOSUNNY   39  25  56 SE9       29.63F
NEW CASTLE     CLOUDY    41  25  53 SE7       29.61F
BEAVER COUNTY  PTSUNNY   37  25  60 SE7       29.60F
BUTLER*        CLOUDY    39  25  56 SE5       29.66S
PITTSBURGH INT CLOUDY    39  23  52 SE7       29.61F
PITTSBURGH     CLOUDY    43  25  49 SE8       29.62F
INDIANA*       SUNNY     41  25  52 SE10G18   29.67F
LATROBE        PTSUNNY   41  25  52 SE12G18   29.65F
WASHINGTON CO* CLOUDY    39  25  56 SE7       29.62F
$$

PAZ004>006-010>012-017>019-024>028-033>037-041-042-045-046-049>053-081700-
CENTRAL PENNSYLVANIA

CITY           SKY/WX    TMP DP  RH WIND       PRES   REMARKS
BRADFORD       PTSUNNY   36  22  56 S10G17    29.63F
DUBOIS         PTSUNNY   37  21  52 SE16G22   29.63F
CLEARFIELD     MOSUNNY   38  23  55 VRB3      29.68F
JOHNSTOWN      SUNNY     36  17  46 SE16      29.63F
ALTOONA        SUNNY     37  21  52 S8        29.70F
STATE COLLEGE  NOT AVBL
WILLIAMSPORT   CLOUDY    39  25  57 E13       29.76F
SELINSGROVE    CLOUDY    36  27  69 CALM      29.78F
FT INDIANTOWN  MOSUNNY   40  26  58 E12       29.77F
CAPITAL CITY   MOSUNNY   40  24  53 E7        29.78F
HARRISBURG     PTSUNNY   39  26  59 E12       29.77F
YORK           SUNNY     40  28  62 E8        29.77F
$$

PAZ038>040-043-044-047-048-054-055-060>062-067>071-081700-
EASTERN PENNSYLVANIA

CITY           SKY/WX    TMP DP  RH WIND       PRES   REMARKS
SCRANTON       CLOUDY    36  24  62 E5        29.77F
MOUNT POCONO   CLOUDY    31  22  69 E8        29.73F
ALLENTOWN      CLOUDY    39  25  57 NE12      29.79F
QUAKERTOWN*    CLOUDY    37  28  70 NE7       29.78F
READING        CLOUDY    39  25  57 NE7       29.78F
LANCASTER      MOSUNNY   39  27  62 E13       29.77F
COATESVILLE    PTSUNNY   39  28  65 NE6G14    29.77F
POTTSTOWN      CLOUDY    38  26  62 N10       29.79F
BLUE BELL        N/A     37  28  70 CALM      29.77F
DOYLESTOWN     CLOUDY    37  25  61 N9        29.76F
WILLOW GROVE   NOT AVBL
NORTH PHILA    CLOUDY    42  29  59 NE15      29.79F
PHILADELPHIA   CLOUDY    41  27  57 N14       29.78F
$$



USA.gov is the U.S. government's official web portal to all federal, state and local government web resources and services.